Time,TemperatureF,DewpointF,PressureIn,WindDirection,WindDirectionDegrees,WindSpeedMPH,WindSpeedGustMPH,Humidity,HourlyPrecipIn,Conditions,Clouds,dailyrainin,SolarRadiationWatts/m^2,SoftwareType,DateUTC
2013-10-17 00:00:00,61.4,60.2,29.95,ENE,61,0.0,4.0,96,0.00,,,0.12,0,Wunderground v.1.15,2013-10-17 04:00:00,
2013-10-17 00:05:00,61.4,60.2,29.95,ENE,61,0.0,4.0,96,0.00,,,0.12,0,Wunderground v.1.15,2013-10-17 04:05:00,
2013-10-17 00:10:00,61.4,60.2,29.95,ENE,61,0.0,4.0,96,0.00,,,0.12,0,Wunderground v.1.15,2013-10-17 04:10:00,
2013-10-17 00:15:00,61.4,60.0,29.95,ENE,61,0.0,4.0,95,0.00,,,0.12,0,Wunderground v.1.15,2013-10-17 04:15:00,
2013-10-17 00:20:00,61.4,60.0,29.95,ENE,61,0.0,4.0,95,0.00,,,0.12,0,Wunderground v.1.15,2013-10-17 04:20:00,
2013-10-17 00:30:00,61.4,60.0,29.95,ENE,61,0.0,4.0,95,0.00,,,0.12,0,Wunderground v.1.15,2013-10-17 04:30:00,
2013-10-17 00:40:00,61.4,60.0,29.95,ENE,61,0.0,4.0,95,0.00,,,0.12,0,Wunderground v.1.15,2013-10-17 04:40:00,
2013-10-17 00:50:00,61.4,60.0,29.95,ENE,57,0.0,4.0,95,0.00,,,0.12,0,Wunderground v.1.15,2013-10-17 04:50:00,
2013-10-17 00:55:00,61.4,60.0,29.95,NNW,330,0.0,4.0,95,0.00,,,0.12,0,Wunderground v.1.15,2013-10-17 04:55:00,
2013-10-17 01:00:00,61.4,60.0,29.94,NNW,330,0.0,0.0,95,0.00,,,0.12,0,Wunderground v.1.15,2013-10-17 05:00:00,
2013-10-17 01:10:00,61.4,60.0,29.94,NNW,330,0.0,1.0,95,0.00,,,0.00,0,Wunderground v.1.15,2013-10-17 05:10:00,
2013-10-17 01:20:00,61.3,60.2,29.94,NNW,330,0.0,1.0,96,0.00,,,0.00,0,Wunderground v.1.15,2013-10-17 05:20:00,
2013-10-17 01:30:00,61.3,60.2,29.94,NNW,330,0.0,1.0,96,0.00,,,0.00,0,Wunderground v.1.15,2013-10-17 05:30:00,
2013-10-17 01:40:00,61.2,59.8,29.94,NNW,330,0.0,1.0,95,0.00,,,0.00,0,Wunderground v.1.15,2013-10-17 05:40:00,
2013-10-17 01:45:00,61.1,59.7,29.94,NNW,329,0.0,1.0,95,0.00,,,0.00,0,Wunderground v.1.15,2013-10-17 05:45:00,
2013-10-17 01:50:00,61.2,59.8,29.93,NNW,329,0.0,1.0,95,0.00,,,0.00,0,Wunderground v.1.15,2013-10-17 05:50:00,
2013-10-17 01:55:00,61.1,59.7,29.93,NNW,329,0.0,1.0,95,0.00,,,0.00,0,Wunderground v.1.15,2013-10-17 05:55:00,
2013-10-17 02:05:00,61.1,60.0,29.93,NNW,329,0.0,1.0,96,0.00,,,0.00,0,Wunderground v.1.15,2013-10-17 06:05:00,
2013-10-17 02:15:00,61.0,59.6,29.93,WNW,296,0.0,1.0,95,0.00,,,0.00,0,Wunderground v.1.15,2013-10-17 06:15:00,
2013-10-17 02:20:00,61.0,59.6,29.93,WNW,296,0.0,1.0,95,0.00,,,0.00,0,Wunderground v.1.15,2013-10-17 06:20:00,
2013-10-17 02:25:00,61.0,59.6,29.94,WNW,296,0.0,1.0,95,0.00,,,0.00,0,Wunderground v.1.15,2013-10-17 06:25:00,
2013-10-17 02:35:00,60.9,59.5,29.94,WNW,296,0.0,1.0,95,0.00,,,0.00,0,Wunderground v.1.15,2013-10-17 06:35:00,
2013-10-17 02:45:00,60.9,59.5,29.93,WNW,296,0.0,1.0,95,0.00,,,0.00,0,Wunderground v.1.15,2013-10-17 06:45:00,
2013-10-17 02:55:00,60.9,59.5,29.93,WNW,296,0.0,1.0,95,0.00,,,0.00,0,Wunderground v.1.15,2013-10-17 06:55:00,
2013-10-17 03:05:00,60.8,59.4,29.93,NW,313,0.0,1.0,95,0.00,,,0.00,0,Wunderground v.1.15,2013-10-17 07:05:00,
2013-10-17 03:15:00,60.8,59.4,29.93,NW,313,0.0,1.0,95,0.00,,,0.00,0,Wunderground v.1.15,2013-10-17 07:15:00,
2013-10-17 03:25:00,60.7,59.3,29.93,NW,313,0.0,1.0,95,0.00,,,0.00,0,Wunderground v.1.15,2013-10-17 07:25:00,
2013-10-17 03:35:00,60.6,59.2,29.93,NW,312,0.0,1.0,95,0.00,,,0.00,0,Wunderground v.1.15,2013-10-17 07:35:00,
2013-10-17 03:45:00,60.6,58.9,29.93,NW,312,0.0,1.0,94,0.00,,,0.00,0,Wunderground v.1.15,2013-10-17 07:45:00,
2013-10-17 03:50:00,60.6,58.9,29.93,West,273,0.0,1.0,94,0.00,,,0.00,0,Wunderground v.1.15,2013-10-17 07:50:00,
2013-10-17 04:00:00,60.6,58.9,29.93,West,278,0.0,1.0,94,0.00,,,0.00,0,Wunderground v.1.15,2013-10-17 08:00:00,
2013-10-17 04:10:00,60.6,58.9,29.93,WNW,296,0.0,1.0,94,0.00,,,0.00,0,Wunderground v.1.15,2013-10-17 08:10:00,
2013-10-17 04:20:00,60.5,58.8,29.93,WNW,299,0.0,1.0,94,0.00,,,0.00,0,Wunderground v.1.15,2013-10-17 08:20:00,
2013-10-17 04:25:00,60.5,58.8,29.94,WNW,299,0.0,1.0,94,0.00,,,0.00,0,Wunderground v.1.15,2013-10-17 08:25:00,
2013-10-17 04:35:00,60.5,59.1,29.94,WNW,299,0.0,1.0,95,0.00,,,0.00,0,Wunderground v.1.15,2013-10-17 08:35:00,
2013-10-17 04:40:00,60.5,59.1,29.93,WNW,299,0.0,1.0,95,0.00,,,0.00,0,Wunderground v.1.15,2013-10-17 08:40:00,
2013-10-17 04:50:00,60.5,59.1,29.94,WNW,299,0.0,1.0,95,0.00,,,0.00,0,Wunderground v.1.15,2013-10-17 08:50:00,
2013-10-17 05:00:00,60.5,59.1,29.94,WNW,299,0.0,1.0,95,0.00,,,0.00,0,Wunderground v.1.15,2013-10-17 09:00:00,
2013-10-17 05:05:00,60.5,58.8,29.94,WNW,299,0.0,1.0,94,0.00,,,0.00,0,Wunderground v.1.15,2013-10-17 09:05:00,
2013-10-17 05:15:00,60.5,59.1,29.94,WNW,299,0.0,1.0,95,0.00,,,0.00,0,Wunderground v.1.15,2013-10-17 09:15:00,
2013-10-17 05:25:00,60.4,59.0,29.94,WNW,296,0.0,1.0,95,0.00,,,0.00,0,Wunderground v.1.15,2013-10-17 09:25:00,
2013-10-17 05:30:00,60.4,59.0,29.94,WNW,296,0.0,1.0,95,0.00,,,0.00,0,Wunderground v.1.15,2013-10-17 09:30:00,
2013-10-17 05:55:00,60.3,58.9,29.94,NW,306,0.0,1.0,95,0.00,,,0.00,0,Wunderground v.1.15,2013-10-17 09:55:00,
2013-10-17 06:00:00,60.2,58.8,29.94,NW,306,0.0,2.0,95,0.00,,,0.00,0,Wunderground v.1.15,2013-10-17 10:00:00,
2013-10-17 06:15:00,60.1,59.0,29.95,NNW,338,0.0,1.0,96,0.00,,,0.00,0,Wunderground v.1.15,2013-10-17 10:15:00,
2013-10-17 06:25:00,60.0,58.9,29.94,ENE,67,0.0,1.0,96,0.00,,,0.00,0,Wunderground v.1.15,2013-10-17 10:25:00,
2013-10-17 06:30:00,59.9,58.8,29.94,NW,319,0.0,1.0,96,0.00,,,0.00,0,Wunderground v.1.15,2013-10-17 10:30:00,
2013-10-17 06:35:00,59.8,58.7,29.94,NW,319,0.0,1.0,96,0.00,,,0.00,0,Wunderground v.1.15,2013-10-17 10:35:00,
2013-10-17 06:40:00,59.8,58.4,29.94,NW,319,0.0,1.0,95,0.00,,,0.00,0,Wunderground v.1.15,2013-10-17 10:40:00,
2013-10-17 06:50:00,59.6,58.2,29.94,NW,319,0.0,1.0,95,0.00,,,0.00,0,Wunderground v.1.15,2013-10-17 10:50:00,
2013-10-17 07:00:00,59.5,58.1,29.95,NW,319,0.0,0.0,95,0.00,,,0.00,0,Wunderground v.1.15,2013-10-17 11:00:00,
2013-10-17 07:10:00,59.4,58.0,29.95,NW,319,0.0,3.0,95,0.00,,,0.00,0,Wunderground v.1.15,2013-10-17 11:10:00,
2013-10-17 07:20:00,59.4,58.0,29.95,NW,319,0.0,3.0,95,0.00,,,0.00,0,Wunderground v.1.15,2013-10-17 11:20:00,
2013-10-17 07:25:00,59.5,58.1,29.95,NNW,333,0.0,3.0,95,0.00,,,0.00,0,Wunderground v.1.15,2013-10-17 11:25:00,
2013-10-17 07:35:00,59.5,58.1,29.95,NNW,329,0.0,3.0,95,0.00,,,0.00,0,Wunderground v.1.15,2013-10-17 11:35:00,
2013-10-17 07:45:00,59.5,58.1,29.95,NNW,341,0.0,3.0,95,0.00,,,0.00,0,Wunderground v.1.15,2013-10-17 11:45:00,
2013-10-17 07:55:00,59.5,58.1,29.96,NW,304,0.0,3.0,95,0.00,,,0.00,0,Wunderground v.1.15,2013-10-17 11:55:00,
2013-10-17 08:05:00,59.4,58.0,29.96,NW,306,0.0,3.0,95,0.00,,,0.00,0,Wunderground v.1.15,2013-10-17 12:05:00,
2013-10-17 08:15:00,59.5,58.1,29.97,NW,312,0.0,3.0,95,0.00,,,0.00,0,Wunderground v.1.15,2013-10-17 12:15:00,
2013-10-17 08:35:00,59.5,58.1,29.97,NW,313,0.0,3.0,95,0.00,,,0.00,0,Wunderground v.1.15,2013-10-17 12:35:00,
2013-10-17 08:50:00,59.6,58.2,29.98,WNW,283,0.0,3.0,95,0.00,,,0.00,16,Wunderground v.1.15,2013-10-17 12:50:00,
2013-10-17 09:00:00,59.7,58.3,29.98,WNW,283,0.0,3.0,95,0.00,,,0.00,28,Wunderground v.1.15,2013-10-17 13:00:00,
2013-10-17 09:10:00,59.9,58.5,29.98,West,278,0.0,3.0,95,0.00,,,0.00,53,Wunderground v.1.15,2013-10-17 13:10:00,
2013-10-17 09:15:00,60.0,58.6,29.99,West,280,0.0,3.0,95,0.00,,,0.00,40,Wunderground v.1.15,2013-10-17 13:15:00,
2013-10-17 09:50:00,60.6,58.9,30.00,West,263,0.0,3.0,94,0.00,,,0.00,44,Wunderground v.1.15,2013-10-17 13:50:00,
2013-10-17 09:55:00,60.7,59.0,30.00,South,190,0.0,3.0,94,0.00,,,0.00,81,Wunderground v.1.15,2013-10-17 13:55:00,
2013-10-17 10:05:00,60.8,58.8,30.00,WSW,249,0.0,3.0,93,0.00,,,0.00,98,Wunderground v.1.15,2013-10-17 14:05:00,
2013-10-17 10:20:00,61.4,59.4,30.00,NNE,32,0.0,3.0,93,0.00,,,0.00,116,Wunderground v.1.15,2013-10-17 14:20:00,
2013-10-17 12:05:00,65.5,58.1,30.02,NNE,29,0.0,3.0,77,0.00,,,0.00,684,Wunderground v.1.15,2013-10-17 16:05:00,
2013-10-17 12:20:00,67.6,59.0,30.02,SW,230,1.0,1.0,74,0.00,,,0.00,139,Wunderground v.1.15,2013-10-17 16:20:00,
2013-10-17 12:30:00,66.0,57.5,30.02,WSW,257,1.0,1.0,74,0.00,,,0.00,698,Wunderground v.1.15,2013-10-17 16:30:00,
2013-10-17 12:40:00,67.0,57.3,30.01,NNW,334,0.0,3.0,71,0.00,,,0.00,134,Wunderground v.1.15,2013-10-17 16:40:00,
2013-10-17 12:45:00,66.9,57.2,30.01,WNW,286,1.0,3.0,71,0.00,,,0.00,214,Wunderground v.1.15,2013-10-17 16:45:00,
2013-10-17 12:55:00,67.0,56.9,30.01,WNW,286,0.0,3.0,70,0.00,,,0.00,167,Wunderground v.1.15,2013-10-17 16:55:00,
2013-10-17 13:00:00,66.6,56.5,30.01,West,275,0.0,2.0,70,0.00,,,0.00,109,Wunderground v.1.15,2013-10-17 17:00:00,
2013-10-17 13:10:00,67.1,58.5,30.01,SW,229,1.0,1.0,74,0.00,,,0.00,747,Wunderground v.1.15,2013-10-17 17:10:00,
2013-10-17 13:15:00,68.3,56.9,30.00,ENE,67,0.0,4.0,67,0.00,,,0.00,777,Wunderground v.1.15,2013-10-17 17:15:00,
2013-10-17 13:25:00,69.0,55.9,30.00,NE,39,1.0,4.0,63,0.00,,,0.00,763,Wunderground v.1.15,2013-10-17 17:25:00,
2013-10-17 13:30:00,68.9,56.2,30.00,NE,48,1.0,1.0,64,0.00,,,0.00,747,Wunderground v.1.15,2013-10-17 17:30:00,
2013-10-17 13:35:00,68.8,56.6,29.99,East,88,1.0,4.0,65,0.00,,,0.00,751,Wunderground v.1.15,2013-10-17 17:35:00,
2013-10-17 13:40:00,69.6,56.9,29.99,South,184,1.0,1.0,64,0.00,,,0.00,752,Wunderground v.1.15,2013-10-17 17:40:00,
2013-10-17 13:45:00,70.1,56.5,29.99,NNW,347,1.0,4.0,62,0.00,,,0.00,752,Wunderground v.1.15,2013-10-17 17:45:00,
2013-10-17 13:55:00,70.1,56.0,29.98,North,360,1.0,4.0,61,0.00,,,0.00,749,Wunderground v.1.15,2013-10-17 17:55:00,
2013-10-17 14:05:00,70.0,57.7,29.98,NW,319,1.0,4.0,65,0.00,,,0.00,758,Wunderground v.1.15,2013-10-17 18:05:00,
2013-10-17 14:10:00,70.6,56.5,29.98,SSW,197,0.0,4.0,61,0.00,,,0.00,751,Wunderground v.1.15,2013-10-17 18:10:00,
2013-10-17 14:15:00,70.7,58.4,29.98,NW,306,0.0,4.0,65,0.00,,,0.00,784,Wunderground v.1.15,2013-10-17 18:15:00,
2013-10-17 14:25:00,70.7,57.0,29.98,SW,214,1.0,4.0,62,0.00,,,0.00,731,Wunderground v.1.15,2013-10-17 18:25:00,
2013-10-17 14:35:00,71.2,57.5,29.97,SE,140,0.0,4.0,62,0.00,,,0.00,766,Wunderground v.1.15,2013-10-17 18:35:00,
2013-10-17 14:45:00,72.2,57.5,29.97,North,349,0.0,4.0,60,0.00,,,0.00,758,Wunderground v.1.15,2013-10-17 18:45:00,
2013-10-17 14:50:00,72.4,56.3,29.97,West,281,0.0,4.0,57,0.00,,,0.00,742,Wunderground v.1.15,2013-10-17 18:50:00,
2013-10-17 14:55:00,72.1,57.0,29.96,NNW,329,0.0,4.0,59,0.00,,,0.00,751,Wunderground v.1.15,2013-10-17 18:55:00,
2013-10-17 15:00:00,71.8,55.7,29.96,ENE,72,1.0,1.0,57,0.00,,,0.00,186,Wunderground v.1.15,2013-10-17 19:00:00,
2013-10-17 15:10:00,71.7,57.1,29.96,WNW,288,0.0,4.0,60,0.00,,,0.00,729,Wunderground v.1.15,2013-10-17 19:10:00,
2013-10-17 15:20:00,72.4,57.7,29.95,WSW,253,1.0,4.0,60,0.00,,,0.00,726,Wunderground v.1.15,2013-10-17 19:20:00,
2013-10-17 15:30:00,72.4,58.2,29.95,NNW,344,0.0,4.0,61,0.00,,,0.00,680,Wunderground v.1.15,2013-10-17 19:30:00,
2013-10-17 15:40:00,72.3,56.7,29.95,WNW,290,1.0,4.0,58,0.00,,,0.00,670,Wunderground v.1.15,2013-10-17 19:40:00,
2013-10-17 15:45:00,72.5,56.4,29.95,SSW,206,1.0,4.0,57,0.00,,,0.00,659,Wunderground v.1.15,2013-10-17 19:45:00,
2013-10-17 15:50:00,72.2,57.5,29.95,NW,312,0.0,4.0,60,0.00,,,0.00,654,Wunderground v.1.15,2013-10-17 19:50:00,
2013-10-17 16:00:00,72.5,56.4,29.95,WNW,290,0.0,4.0,57,0.00,,,0.00,647,Wunderground v.1.15,2013-10-17 20:00:00,
2013-10-17 16:10:00,72.7,56.6,29.94,WNW,296,0.0,4.0,57,0.00,,,0.00,601,Wunderground v.1.15,2013-10-17 20:10:00,
2013-10-17 16:20:00,72.7,56.1,29.94,South,190,0.0,4.0,56,0.00,,,0.00,596,Wunderground v.1.15,2013-10-17 20:20:00,
2013-10-17 16:25:00,72.5,56.4,29.94,WNW,284,0.0,4.0,57,0.00,,,0.00,582,Wunderground v.1.15,2013-10-17 20:25:00,
2013-10-17 16:30:00,72.6,56.5,29.94,NNW,348,0.0,4.0,57,0.00,,,0.00,564,Wunderground v.1.15,2013-10-17 20:30:00,
2013-10-17 16:40:00,72.4,56.8,29.94,WNW,289,0.0,4.0,58,0.00,,,0.00,225,Wunderground v.1.15,2013-10-17 20:40:00,
2013-10-17 16:50:00,72.8,57.2,29.94,WSW,238,0.0,4.0,58,0.00,,,0.00,482,Wunderground v.1.15,2013-10-17 20:50:00,
2013-10-17 16:55:00,72.8,56.7,29.94,NW,318,0.0,4.0,57,0.00,,,0.00,406,Wunderground v.1.15,2013-10-17 20:55:00,
2013-10-17 17:05:00,72.0,55.4,29.94,West,275,0.0,4.0,56,0.00,,,0.00,121,Wunderground v.1.15,2013-10-17 21:05:00,
2013-10-17 17:15:00,71.6,56.5,29.94,WSW,256,0.0,4.0,59,0.00,,,0.00,62,Wunderground v.1.15,2013-10-17 21:15:00,
2013-10-17 17:25:00,71.4,56.8,29.93,WNW,286,0.0,4.0,60,0.00,,,0.00,44,Wunderground v.1.15,2013-10-17 21:25:00,
2013-10-17 17:35:00,70.9,55.9,29.94,West,269,0.0,4.0,59,0.00,,,0.00,54,Wunderground v.1.15,2013-10-17 21:35:00,
2013-10-17 17:45:00,70.6,56.9,29.94,WSW,257,0.0,4.0,62,0.00,,,0.00,47,Wunderground v.1.15,2013-10-17 21:45:00,
2013-10-17 17:55:00,70.0,55.0,29.93,WNW,300,0.0,4.0,59,0.00,,,0.00,37,Wunderground v.1.15,2013-10-17 21:55:00,
2013-10-17 18:00:00,69.8,55.3,29.93,WNW,282,0.0,4.0,60,0.00,,,0.00,181,Wunderground v.1.15,2013-10-17 22:00:00,
2013-10-17 18:10:00,69.6,57.3,29.93,WNW,282,0.0,4.0,65,0.00,,,0.00,216,Wunderground v.1.15,2013-10-17 22:10:00,
2013-10-17 18:20:00,69.6,57.3,29.94,WNW,282,0.0,4.0,65,0.00,,,0.00,60,Wunderground v.1.15,2013-10-17 22:20:00,
2013-10-17 18:30:00,69.0,57.6,29.93,WNW,282,0.0,4.0,67,0.00,,,0.00,51,Wunderground v.1.15,2013-10-17 22:30:00,
2013-10-17 18:35:00,68.3,57.3,29.94,WNW,282,0.0,4.0,68,0.00,,,0.00,46,Wunderground v.1.15,2013-10-17 22:35:00,
2013-10-17 18:45:00,67.6,57.1,29.93,WNW,282,0.0,4.0,69,0.00,,,0.00,25,Wunderground v.1.15,2013-10-17 22:45:00,
2013-10-17 18:55:00,67.1,57.0,29.94,WNW,282,0.0,4.0,70,0.00,,,0.00,33,Wunderground v.1.15,2013-10-17 22:55:00,
2013-10-17 19:00:00,66.8,57.1,29.94,WNW,282,0.0,0.0,71,0.00,,,0.00,32,Wunderground v.1.15,2013-10-17 23:00:00,
2013-10-17 19:10:00,66.3,57.4,29.94,WNW,282,0.0,2.0,73,0.00,,,0.00,18,Wunderground v.1.15,2013-10-17 23:10:00,
2013-10-17 19:20:00,65.8,58.7,29.94,WNW,282,0.0,2.0,78,0.00,,,0.00,7,Wunderground v.1.15,2013-10-17 23:20:00,
2013-10-17 19:30:00,65.1,57.7,29.94,WNW,282,0.0,2.0,77,0.00,,,0.00,0,Wunderground v.1.15,2013-10-17 23:30:00,
2013-10-17 19:35:00,64.7,57.3,29.94,WNW,282,0.0,2.0,77,0.00,,,0.00,0,Wunderground v.1.15,2013-10-17 23:35:00,
2013-10-17 19:45:00,64.1,57.5,29.94,WNW,282,0.0,2.0,79,0.00,,,0.00,0,Wunderground v.1.15,2013-10-17 23:45:00,
2013-10-17 19:50:00,63.9,57.6,29.94,WNW,282,0.0,2.0,80,0.00,,,0.00,0,Wunderground v.1.15,2013-10-17 23:50:00,
2013-10-17 20:00:00,63.3,57.7,29.94,WNW,282,0.0,2.0,82,0.00,,,0.00,0,Wunderground v.1.15,2013-10-18 00:00:00,
2013-10-17 20:10:00,62.7,57.5,29.95,WNW,282,0.0,2.0,83,0.00,,,0.00,0,Wunderground v.1.15,2013-10-18 00:10:00,
2013-10-17 20:20:00,62.1,57.9,29.95,WNW,282,0.0,2.0,86,0.00,,,0.00,0,Wunderground v.1.15,2013-10-18 00:20:00,
2013-10-17 20:30:00,61.7,57.8,29.95,WNW,282,0.0,2.0,87,0.00,,,0.00,0,Wunderground v.1.15,2013-10-18 00:30:00,
2013-10-17 20:40:00,61.1,57.2,29.95,WNW,282,0.0,2.0,87,0.00,,,0.00,0,Wunderground v.1.15,2013-10-18 00:40:00,
2013-10-17 20:50:00,60.7,57.1,29.95,WNW,282,0.0,2.0,88,0.00,,,0.00,0,Wunderground v.1.15,2013-10-18 00:50:00,
2013-10-17 20:55:00,60.5,57.2,29.96,WNW,282,0.0,2.0,89,0.00,,,0.00,0,Wunderground v.1.15,2013-10-18 00:55:00,
2013-10-17 21:05:00,60.1,56.8,29.96,WNW,282,0.0,2.0,89,0.00,,,0.00,0,Wunderground v.1.15,2013-10-18 01:05:00,
2013-10-17 21:10:00,59.9,57.0,29.96,WNW,282,0.0,2.0,90,0.00,,,0.00,0,Wunderground v.1.15,2013-10-18 01:10:00,
2013-10-17 21:15:00,59.7,56.8,29.96,WNW,282,0.0,2.0,90,0.00,,,0.00,0,Wunderground v.1.15,2013-10-18 01:15:00,
2013-10-17 21:25:00,59.3,56.4,29.96,WNW,282,0.0,2.0,90,0.00,,,0.00,0,Wunderground v.1.15,2013-10-18 01:25:00,
2013-10-17 21:35:00,59.1,56.5,29.96,WNW,282,0.0,2.0,91,0.00,,,0.00,0,Wunderground v.1.15,2013-10-18 01:35:00,
2013-10-17 21:40:00,59.0,56.4,29.96,WNW,282,0.0,2.0,91,0.00,,,0.00,0,Wunderground v.1.15,2013-10-18 01:40:00,
2013-10-17 21:50:00,58.7,56.1,29.96,WNW,282,0.0,2.0,91,0.00,,,0.00,0,Wunderground v.1.15,2013-10-18 01:50:00,
2013-10-17 21:55:00,58.6,56.0,29.96,WNW,282,0.0,2.0,91,0.00,,,0.00,0,Wunderground v.1.15,2013-10-18 01:55:00,
2013-10-17 22:05:00,58.4,56.1,29.97,WNW,282,0.0,2.0,92,0.00,,,0.00,0,Wunderground v.1.15,2013-10-18 02:05:00,
2013-10-17 22:10:00,58.3,56.0,29.97,WNW,282,0.0,2.0,92,0.00,,,0.00,0,Wunderground v.1.15,2013-10-18 02:10:00,
2013-10-17 22:20:00,58.0,55.7,29.97,WNW,282,0.0,2.0,92,0.00,,,0.00,0,Wunderground v.1.15,2013-10-18 02:20:00,
2013-10-17 22:30:00,57.8,55.8,29.97,WNW,282,0.0,2.0,93,0.00,,,0.00,0,Wunderground v.1.15,2013-10-18 02:30:00,
2013-10-17 22:40:00,57.7,55.7,29.97,WNW,282,0.0,2.0,93,0.00,,,0.00,0,Wunderground v.1.15,2013-10-18 02:40:00,
2013-10-17 22:50:00,57.5,55.5,29.98,WNW,282,0.0,2.0,93,0.00,,,0.00,0,Wunderground v.1.15,2013-10-18 02:50:00,
2013-10-17 23:00:00,57.3,55.6,29.97,WNW,282,0.0,2.0,94,0.00,,,0.00,0,Wunderground v.1.15,2013-10-18 03:00:00,
2013-10-17 23:10:00,57.1,55.4,29.97,WNW,282,0.0,2.0,94,0.00,,,0.00,0,Wunderground v.1.15,2013-10-18 03:10:00,
2013-10-17 23:20:00,57.0,55.3,29.97,WNW,282,0.0,2.0,94,0.00,,,0.00,0,Wunderground v.1.15,2013-10-18 03:20:00,
2013-10-17 23:30:00,56.9,55.2,29.98,WNW,282,0.0,2.0,94,0.00,,,0.00,0,Wunderground v.1.15,2013-10-18 03:30:00,
2013-10-17 23:40:00,56.8,55.1,29.98,WNW,282,0.0,2.0,94,0.00,,,0.00,0,Wunderground v.1.15,2013-10-18 03:40:00,
2013-10-17 23:45:00,56.7,55.0,29.98,WNW,282,0.0,2.0,94,0.00,,,0.00,0,Wunderground v.1.15,2013-10-18 03:45:00,
2013-10-17 23:50:00,56.6,54.9,29.98,WNW,282,0.0,2.0,94,0.00,,,0.00,0,Wunderground v.1.15,2013-10-18 03:50:00,